| time (UTC) | temp F | wind direction | speed MPH | gust MPH | rain 1hr in | rain 24hr in | rain mn in | humidity % | barometer mb |
| 20260504081557 | 46 | 0 | 0.0 | 0.0 | 0.00 | 0.00 | 0.00 | 88 | 1018.6 |
| 20260504050113 | 51 | 0 | 0.0 | 0.0 | 0.00 | 0.00 | 0.00 | 81 | 1019.7 |
| 20260504044547 | 51 | 0 | 0.0 | 0.0 | 0.00 | 0.00 | 0.00 | 81 | 1019.6 |
| 20260504043057 | 51 | 0 | 0.0 | 0.0 | 0.00 | 0.00 | 0.00 | 81 | 1019.6 |
| 20260504041546 | 51 | 0 | 0.0 | 0.0 | 0.00 | 0.00 | 0.00 | 81 | 1019.8 |
| 20260504040046 | 52 | 0 | 0.0 | 0.0 | 0.00 | 0.00 | 0.00 | 79 | 1019.8 |
| 20260504034548 | 52 | 0 | 0.0 | 1.0 | 0.00 | 0.00 | 0.00 | 78 | 1019.6 |
| 20260504033048 | 53 | 0 | 0.0 | 0.0 | 0.00 | 0.00 | 0.00 | 77 | 1019.5 |
| 20260504031605 | 53 | 0 | 1.0 | 3.0 | 0.00 | 0.00 | 0.00 | 75 | 1019.5 |
| 20260504030048 | 54 | 360 | 1.0 | 3.0 | 0.00 | 0.00 | 0.00 | 74 | 1019.1 |
| 20260504024546 | 54 | 0 | 0.0 | 1.0 | 0.00 | 0.00 | 0.00 | 73 | 1019.1 |
| 20260504023050 | 55 | 0 | 0.0 | 2.0 | 0.00 | 0.00 | 0.00 | 72 | 1019.2 |
| 20260504021547 | 56 | 0 | 0.0 | 0.0 | 0.00 | 0.00 | 0.00 | 70 | 1019.0 |
| 20260504020049 | 56 | 0 | 0.0 | 0.0 | 0.00 | 0.00 | 0.00 | 69 | 1018.8 |
| 20260504014549 | 57 | 0 | 0.0 | 2.0 | 0.00 | 0.00 | 0.00 | 68 | 1018.6 |
| 20260504013046 | 58 | 0 | 0.0 | 2.0 | 0.00 | 0.00 | 0.00 | 65 | 1018.4 |
| 20260504011549 | 59 | 0 | 0.0 | 1.0 | 0.00 | 0.00 | 0.00 | 61 | 1018.2 |
| 20260504010045 | 60 | 0 | 0.0 | 2.0 | 0.00 | 0.00 | 0.00 | 57 | 1018.2 |
| 20260504004549 | 61 | 0 | 0.0 | 0.0 | 0.00 | 0.00 | 0.00 | 54 | 1018.1 |
| 20260504003049 | 63 | 0 | 0.0 | 0.0 | 0.00 | 0.00 | 0.00 | 50 | 1017.9 |
| 20260504001605 | 64 | 0 | 0.0 | 0.0 | 0.00 | 0.00 | 0.00 | 48 | 1017.8 |
| 20260504000047 | 66 | 0 | 0.0 | 0.0 | 0.00 | 0.00 | 0.00 | 44 | 1017.9 |
| 20260503234544 | 67 | 0 | 0.0 | 2.0 | 0.00 | 0.00 | 0.00 | 42 | 1017.8 |
| 20260503233049 | 68 | 0 | 0.0 | 1.0 | 0.00 | 0.00 | 0.00 | 40 | 1017.8 |
| 20260503231548 | 69 | 360 | 2.0 | 5.0 | 0.00 | 0.00 | 0.00 | 36 | 1017.8 |
| 20260503230048 | 69 | 360 | 3.0 | 9.0 | 0.00 | 0.00 | 0.00 | 36 | 1017.8 |
| 20260503224551 | 70 | 360 | 0.0 | 4.0 | 0.00 | 0.00 | 0.00 | 36 | 1018.0 |
| 20260503223045 | 70 | 360 | 6.0 | 10.0 | 0.00 | 0.00 | 0.00 | 35 | 1017.9 |
| 20260503221543 | 72 | 175 | 1.0 | 9.0 | 0.00 | 0.00 | 0.00 | 34 | 1017.9 |
| 20260503220045 | 72 | 336 | 2.0 | 9.0 | 0.00 | 0.00 | 0.00 | 34 | 1018.1 |
| 20260503214555 | 72 | 294 | 2.0 | 11.0 | 0.00 | 0.00 | 0.00 | 35 | 1018.1 |
| 20260503213117 | 72 | 312 | 4.0 | 13.0 | 0.00 | 0.00 | 0.00 | 35 | 1018.1 |
| 20260503211613 | 72 | 348 | 4.0 | 10.0 | 0.00 | 0.00 | 0.00 | 37 | 1018.3 |
| 20260503210047 | 72 | 0 | 4.0 | 10.0 | 0.00 | 0.00 | 0.00 | 36 | 1018.4 |
| 20260503204601 | 73 | 146 | 0.0 | 6.0 | 0.00 | 0.00 | 0.00 | 33 | 1018.4 |
| 20260503203043 | 73 | 278 | 1.0 | 12.0 | 0.00 | 0.00 | 0.00 | 34 | 1018.7 |
| 20260503201542 | 72 | 328 | 4.0 | 13.0 | 0.00 | 0.00 | 0.00 | 36 | 1018.6 |
| 20260503200052 | 71 | 293 | 4.0 | 13.0 | 0.00 | 0.00 | 0.00 | 35 | 1018.7 |
| 20260503194547 | 71 | 333 | 5.0 | 11.0 | 0.00 | 0.00 | 0.00 | 35 | 1018.8 |
| 20260503193046 | 71 | 313 | 4.0 | 11.0 | 0.00 | 0.00 | 0.00 | 36 | 1019.2 |
| 20260503191557 | 72 | 342 | 8.0 | 15.0 | 0.00 | 0.00 | 0.00 | 33 | 1019.6 |
| 20260503190044 | 70 | 295 | 3.0 | 13.0 | 0.00 | 0.00 | 0.00 | 34 | 1019.7 |
| 20260503184605 | 72 | 190 | 0.0 | 9.0 | 0.00 | 0.00 | 0.00 | 36 | 1019.9 |
| 20260503183049 | 70 | 346 | 8.0 | 15.0 | 0.00 | 0.00 | 0.00 | 35 | 1020.2 |
| 20260503181551 | 70 | 360 | 1.0 | 13.0 | 0.00 | 0.00 | 0.00 | 35 | 1020.5 |
| 20260503180048 | 70 | 360 | 2.0 | 13.0 | 0.00 | 0.00 | 0.00 | 35 | 1020.7 |
| 20260503174603 | 70 | 0 | 1.0 | 11.0 | 0.00 | 0.00 | 0.00 | 38 | 1020.8 |
| 20260503173042 | 70 | 206 | 2.0 | 12.0 | 0.00 | 0.00 | 0.00 | 36 | 1021.0 |
| 20260503171551 | 69 | 0 | 1.0 | 11.0 | 0.00 | 0.00 | 0.00 | 40 | 1021.0 |